Flag for U.S.A. Weather past 2 weeks in Pensacola, Florida, U.S.A.

Now
87 °F

Passing clouds.


Feels Like: 90 °F
Forecast: 66 / 88 °F
Wind: 3 mph from Southeast

Location: Pensacola Regional Airport

Current Time: Aug 28, 2015 at 1:05:42 PM

Latest Report: Aug 28, 2015 at 11:53 AM


Visibility: 10 mi

Pressure: 30.02 "Hg

Humidity: 51%

Dew point: 67 °F

Location of PensacolaLocation

Historic Weather in Pensacola — Graph

°F

Pensacola temperature yesterday

Maximum temperature yesterday: 87 °F (at 1:53 PM)
Minimum temperature yesterday: 65 °F (at 4:53 AM)
Average temperature yesterday: 76 °F

Past Weeks' High & Low Weather Summary

 TemperatureHumidityPressure
High95 °F (Aug 23, 4:53 PM)97% (Aug 17, 8:02 AM)30.09 "Hg (Aug 17, 8:02 AM)
Low65 °F (Aug 27, 4:53 AM)31% (Aug 14, 12:53 PM)29.90 "Hg (Aug 24, 6:53 PM)
Average81 °F73%29.99 "Hg
* Reported Aug 13 11:53 AM — Aug 28 11:53 AM, Pensacola, Weather by CustomWeather, © 2015

Note: Actual official high and low records may vary slightly from our data, if they occured in-between our weather recording intervals... More about our weather records

Advertising

Pensacola weather history for previous 24 hours

 ConditionsComfort  
Time TempWeatherWind HumidityBarometerVisibility
11:53 AM
Fri, Aug 28
87 °FPassing clouds.3 mph51%30.02 "Hg10 mi
10:53 AM85 °FSunny.3 mph57%30.03 "Hg10 mi
9:53 AM83 °FSunny.3 mph57%30.02 "Hg10 mi
8:53 AM79 °FSunny.5 mph65%30.01 "Hg10 mi
7:53 AM73 °FPassing clouds.5 mph81%30.00 "Hg10 mi
6:53 AM70 °FSunny.3 mph84%29.97 "Hg10 mi
5:53 AM70 °FClear.3 mph84%29.96 "Hg10 mi
4:53 AM70 °FClear.6 mph90%29.94 "Hg10 mi
3:53 AM70 °FPassing clouds.5 mph90%29.93 "Hg10 mi
2:53 AM70 °FClear.No wind90%29.93 "Hg10 mi
1:53 AM71 °FClear.No wind87%29.94 "Hg10 mi
12:53 AM71 °FClear.3 mph87%29.95 "Hg10 mi
11:53 PM
Thu, Aug 27
72 °FClear.No wind84%29.96 "Hg10 mi
10:53 PM76 °FClear.No wind74%29.97 "Hg10 mi
9:53 PM75 °FClear.No wind74%29.97 "Hg10 mi
8:53 PM78 °FClear.7 mph66%29.97 "Hg10 mi
7:53 PM79 °FClear.6 mph62%29.95 "Hg10 mi
6:53 PM80 °FSunny.7 mph60%29.93 "Hg10 mi
5:53 PM83 °FSunny.8 mph53%29.93 "Hg10 mi
4:53 PM84 °FSunny.10 mph53%29.92 "Hg10 mi
3:53 PM84 °FSunny.10 mph53%29.92 "Hg10 mi
2:53 PM85 °FSunny.13 mph53%29.93 "Hg10 mi
1:53 PM87 °FSunny.5 mph43%29.94 "Hg10 mi
Weather by CustomWeather, © 2015

See weather overviewHow to use our weather pages